Latest Coastal Weather Observations for Truscott

IDW60701

Issued at 9:12 pm WST Saturday 18 April 2015 (issued every 10 minutes, with the page automatically refreshed every 10 minutes)

About coastal observations | Map of coastal stations | Coastal observations for WA | Marine services | Other Formats
Station Details ID: 001020 Name: TRUSCOTT Lat: -14.09 Lon: 126.39 Height: 51.0 m
Data from the previous 72 hours. | See also: Recent months at Truscott
Date/Time
WST
Temp

°C
Wind Pressure Rain
since 9am
mm
Weather Cloud Vis
km
Sea
Height
m
Swell
Dir
 
Speed
knots
Gust
knots
hPa Trend Height
m
Period
s
Dir
18/09:00pm 27.5 CALM 0 0 1011.6 - 0.0 - - 10 - - - -
18/08:30pm 28.0 S 3 - 1012.0 - 0.0 - - 8 - - - -
18/08:00pm 28.0 E 3 - 1012.0 - 0.0 - - 10 - - - -
18/07:30pm 28.0 SSE 3 - 1012.0 - 0.0 - - 10 - - - -
18/07:00pm 28.0 CALM 0 - 1011.0 - 0.0 - - 9 - - - -
18/06:30pm 29.0 CALM 0 - 1010.0 - 0.0 - - 10 - - - -
18/06:00pm 29.2 NNE 4 - 1009.8 - 0.0 - Mostly cloudy 10 - - - -
18/05:30pm 30.0 N 4 - 1009.0 - 0.0 - Partly cloudy 10 - - - -
18/05:00pm 31.0 N 5 - 1009.0 - 0.0 - - 10 - - - -
18/04:30pm 31.0 N 4 - 1009.0 - 0.0 - - 10 - - - -
18/04:00pm 31.0 NNW 3 - 1008.0 - 0.0 - - 10 - - - -
18/03:30pm 31.0 WNW 5 - 1008.0 - 0.0 - - 10 - - - -
18/03:00pm 32.0 W 6 - 1008.1 - 0.0 - Mostly clear 10 - - - -
18/02:30pm 33.0 WSW 5 - 1008.0 - 0.0 - - 10 - - - -
18/02:00pm 32.0 NW 6 - 1009.0 - 0.0 - - 10 - - - -
18/01:30pm 32.0 W 6 - 1009.0 - 0.0 - Partly cloudy 10 - - - -
18/01:00pm 32.0 W 8 - 1009.0 - 0.0 - Partly cloudy 10 - - - -
18/12:30pm 33.0 N 6 - 1010.0 - 0.0 - - 10 - - - -
18/12:00pm 32.0 E 5 - 1010.0 - 0.0 - Mostly clear 10 - - - -
18/11:30am 32.0 SSE 7 - 1010.0 - 0.0 - Partly cloudy 10 - - - -
18/11:00am 32.0 ESE 4 - 1011.0 - 0.0 - Partly cloudy 10 - - - -
18/10:30am 31.0 WSW 5 - 1011.0 - 0.0 - Partly cloudy 10 - - - -
18/10:00am 31.0 SW 5 - 1012.0 - 0.0 - Partly cloudy 10 - - - -
18/09:30am 30.0 SE 4 6 1012.0 - 0.0 - - 10 - - - -
18/09:00am 28.9 SSE 4 - 1012.0 - 0.0 - - 10 - - - -
18/08:30am 28.0 SE 5 - 1012.0 - 0.0 - - 10 - - - -
18/08:00am 28.0 SE 5 - 1012.0 - 0.0 - - 10 - - - -
18/07:30am 28.0 S 5 - 1012.0 - 0.0 - - 10 - - - -
18/07:00am 28.0 SSE 4 6 1012.0 - 0.0 - - 10 - - - -
18/06:30am 27.0 CALM 0 - 1011.0 - 0.0 - - 10 - - - -
18/06:00am 26.0 CALM 0 - 1011.1 - 0.0 - - 10 - - - -
18/05:30am 26.0 CALM 0 - 1011.0 - 0.0 - - 10 - - - -
18/05:00am 26.0 S 2 - 1011.0 - 0.0 - - 10 - - - -
18/04:30am 26.0 S 4 - 1011.0 - 0.0 - - 10 - - - -
18/04:00am 26.0 CALM 0 - 1010.0 - 0.0 - - 10 - - - -
18/03:30am 26.0 S 2 - 1010.0 - 0.0 - - 10 - - - -
18/03:00am 26.8 SSW 4 - 1009.8 - 0.0 - - 10 - - - -
18/02:30am 27.0 SW 4 - 1010.0 - 0.0 - - 10 - - - -
18/02:00am 27.0 SSW 4 - 1010.0 - 0.0 - Partly cloudy 10 - - - -
18/01:30am 26.0 CALM 0 5 1010.0 - 0.0 - Partly cloudy 10 - - - -
18/01:00am 27.0 CALM 0 - 1010.0 - 0.0 - - 10 - - - -
18/12:30am 27.0 CALM 0 - 1011.0 - 0.0 - Partly cloudy 10 - - - -
18/12:00am 26.6 CALM 0 0 1011.1 - 0.0 - - 10 - - - -
 
Date/Time
WST
Temp

°C
Wind Pressure Rain
since 9am
mm
Weather Cloud Vis
km
Sea
Height
m
Swell
Dir
 
Speed
knots
Gust
knots
hPa Trend Height
m
Period
s
Dir
17/11:30pm 27.0 CALM 0 - 1011.0 - 0.0 - - 10 - - - -
17/11:00pm 27.0 CALM 0 - 1011.0 - 0.0 - - 10 - - - -
17/10:30pm 27.0 CALM 0 - 1011.0 - 0.0 - - 10 - - - -
17/10:00pm 27.0 CALM 0 - 1012.0 - 0.0 - - 10 - - - -
17/09:30pm 27.0 CALM 0 - 1012.0 - 0.0 - - 10 - - - -
17/09:00pm 27.0 CALM 0 - 1012.0 - 0.0 - - 10 - - - -
17/08:30pm 27.0 CALM 0 - 1012.0 - 0.0 - - 10 - - - -
17/08:00pm 27.0 CALM 0 - 1012.0 - 0.0 - - 10 - - - -
17/07:30pm 28.0 CALM 0 - 1011.0 - 0.0 - - 10 - - - -
17/07:00pm 28.0 NNE 2 - 1011.0 - 0.0 - - 10 - - - -
17/06:30pm 28.0 N 4 - 1010.0 - 0.0 - - 10 - - - -
17/06:00pm 28.6 N 4 - 1009.7 - 0.0 - - 10 - - - -
17/05:30pm 29.0 N 6 - 1010.0 - 0.0 - - 10 - - - -
17/05:00pm 30.0 N 6 - 1009.0 - 0.0 - - 10 - - - -
17/04:30pm 31.0 N 7 - 1009.0 - 0.0 - - 10 - - - -
17/04:00pm 31.0 N 8 - 1009.0 - 0.0 - - 10 - - - -
17/03:30pm 32.0 N 9 - 1009.0 - 0.0 - Partly cloudy 10 - - - -
17/03:00pm 31.7 N 8 - 1008.4 - 0.0 - - 10 - - - -
17/02:30pm 32.0 N 9 - 1009.0 - 0.0 - Partly cloudy 10 - - - -
17/02:00pm 32.0 N 8 - 1009.0 - 0.0 - Partly cloudy 10 - - - -
17/01:30pm 32.0 NNE 6 - 1009.0 - 0.0 - Partly cloudy 10 - - - -
17/01:00pm 33.0 NE 7 - 1010.0 - 0.0 - Partly cloudy 10 - - - -
17/12:30pm 33.0 ENE 8 - 1010.0 - 0.0 - - 10 - - - -
17/12:00pm 33.1 E 7 - 1010.2 - 0.0 - - 10 - - - -
17/11:30am 33.0 ENE 7 - 1011.0 - 0.0 - - 10 - - - -
17/11:00am 33.0 E 6 - 1011.0 - 0.0 - - 10 - - - -
17/10:30am 33.0 E 5 - 1011.0 - 0.0 - - 10 - - - -
17/10:00am 32.0 ENE 5 - 1012.0 - 0.0 - - 10 - - - -
17/09:30am 32.0 SE 4 - 1013.0 - 0.0 - Partly cloudy 10 - - - -
17/09:00am 30.5 ESE 3 - 1012.8 - 0.0 - - 10 - - - -
17/08:30am 30.0 E 3 - 1013.0 - 0.0 - - 10 - - - -
17/08:00am 29.0 ENE 4 - 1013.0 - 0.0 - - 10 - - - -
17/07:30am 29.0 SSW 4 - 1013.0 - 0.0 - - 10 - - - -
17/07:00am 28.0 SSE 4 - 1012.0 - 0.0 - - 10 - - - -
17/06:30am 28.0 SSE 4 - 1012.0 - 0.0 - - 10 - - - -
17/06:00am 26.8 S 4 - 1011.6 - 0.0 - - 10 - - - -
17/05:30am 27.0 SSW 6 - 1012.0 - 0.0 - - 10 - - - -
17/05:00am 27.0 SSW 6 - 1012.0 - 0.0 - - 10 - - - -
17/04:30am 27.0 SSW 4 - 1011.0 - 0.0 - - 10 - - - -
17/04:00am 27.0 SSW 5 - 1011.0 - 0.0 - - 10 - - - -
17/03:30am 27.0 SSW 6 - 1011.0 - 0.0 - - 6 - - - -
17/03:00am 26.4 SSW 5 - 1011.1 - 0.0 - - 10 - - - -
17/02:30am 26.0 CALM 0 - 1011.0 - 0.0 - - 10 - - - -
17/02:00am 26.0 S 3 - 1011.0 - 0.0 - - 10 - - - -
17/01:30am 27.0 SSW 4 - 1011.0 - 0.0 - - 10 - - - -
17/01:00am 27.0 SSW 4 - 1012.0 - 0.0 - - 10 - - - -
17/12:30am 27.0 SSW 3 - 1012.0 - 0.0 - - 10 - - - -
17/12:00am 27.0 ESE 1 - 1012.5 - 0.0 - - 10 - - - -
 
Date/Time
WST
Temp

°C
Wind Pressure Rain
since 9am
mm
Weather Cloud Vis
km
Sea
Height
m
Swell
Dir
 
Speed
knots
Gust
knots
hPa Trend Height
m
Period
s
Dir
16/11:30pm 27.0 CALM 0 - 1013.0 - 0.0 - Partly cloudy 10 - - - -
16/11:00pm 27.0 CALM 0 - 1013.0 - 0.0 - Partly cloudy 10 - - - -
16/10:30pm 27.0 CALM 0 - 1014.0 - 0.0 - - 10 - - - -
16/10:00pm 27.0 CALM 0 - 1014.0 - 0.0 - - 10 - - - -
16/09:30pm 27.0 CALM 0 - 1014.0 - 0.0 - - 10 - - - -
16/09:00pm 27.4 E 3 - 1013.9 - 0.0 - - 10 - - - -
16/08:30pm 28.0 CALM 0 - 1014.0 - 0.0 - - 10 - - - -
16/08:00pm 28.0 NE 4 - 1014.0 - 0.0 - - 10 - - - -
16/07:30pm 28.0 NE 4 - 1013.0 - 0.0 - - 10 - - - -
16/07:00pm 28.0 NNE 4 - 1013.0 - 0.0 - - 10 - - - -
16/06:30pm 28.0 NE 4 - 1012.0 - 0.0 - - 10 - - - -
16/06:00pm 28.3 NE 3 - 1011.9 - 0.0 - - 10 - - - -
16/05:30pm 29.0 NE 5 - 1011.0 - 0.0 - - 10 - - - -
16/05:00pm 30.0 NNE 6 - 1011.0 - 0.0 - - 10 - - - -
16/04:30pm 30.0 NNE 7 - 1011.0 - 0.0 - - 10 - - - -
16/04:00pm 29.0 NNE 6 - 1011.0 - 0.0 - - 10 - - - -
16/03:30pm 30.0 NE 6 - 1011.0 - 0.0 - - 10 - - - -
16/03:00pm 29.7 NE 4 - 1010.8 - 0.0 - - 10 - - - -
16/02:30pm 30.0 ENE 6 - 1011.0 - 0.0 - Cloudy 10 - - - -
16/02:00pm 30.0 ENE 9 - 1011.0 - 0.0 - Partly cloudy 10 - - - -
16/01:30pm 30.0 ENE 15 25 1012.0 - 0.0 - Partly cloudy 10 - - - -
16/01:22pm 30.0 NE 16 26 1012.0 - 0.0 - Partly cloudy 10 - - - -
16/01:17pm 29.0 NE 19 - 1012.0 - 0.0 - Partly cloudy 10 - - - -
16/01:00pm 33.0 N 9 - 1011.0 - 0.0 - Partly cloudy 10 - - - -
16/12:30pm 33.0 N 5 - 1012.0 - 0.0 - - 10 - - - -
16/12:00pm 33.8 ENE 6 - 1011.8 - 0.0 - - 10 - - - -
16/11:30am 33.0 E 6 - 1013.0 - 0.0 - - 10 - - - -
16/11:00am 33.0 ENE 7 - 1013.0 - 0.0 - - 10 - - - -
16/10:30am 33.0 ENE 7 - 1013.0 - 0.0 - - 10 - - - -
16/10:00am 33.0 E 6 - 1014.0 - 0.0 - - 10 - - - -
16/09:30am 32.0 SE 4 - 1014.0 - 0.0 - Partly cloudy 10 - - - -
16/09:00am 31.5 ENE 4 - 1014.7 - 0.0 - Mostly clear 10 - - - -
16/08:30am 31.0 SSW 5 - 1014.0 - 0.0 - - 10 - - - -
16/08:00am 30.0 S 6 - 1015.0 - 0.0 - - 10 - - - -
16/07:30am 29.0 SSW 7 - 1014.0 - 0.0 - - 10 - - - -
16/07:00am 28.0 S 6 - 1014.0 - 0.0 - - 8 - - - -
16/06:30am 28.0 SSW 6 - 1014.0 - 0.0 - - 10 - - - -
16/06:00am 26.7 S 5 - 1013.5 - 0.0 - - 10 - - - -
16/05:30am 26.0 S 3 - 1013.0 - 0.0 - - 10 - - - -
16/05:00am 26.0 S 3 - 1013.0 - 0.0 - - 10 - - - -
16/04:30am 26.0 S 4 - 1013.0 - 0.0 - - 10 - - - -
16/04:00am 26.0 S 3 - 1012.0 - 0.0 - - 10 - - - -
16/03:30am 26.0 S 4 - 1012.0 - 0.0 - - 10 - - - -
16/03:00am 26.1 S 3 - 1012.3 - 0.0 - - 10 - - - -
16/02:30am 26.0 S 3 - 1013.0 - 0.0 - - 10 - - - -
16/02:00am 27.0 CALM 0 - 1013.0 - 0.0 - Partly cloudy 10 - - - -
16/01:30am 26.0 CALM 0 - 1013.0 - 0.0 - - 10 - - - -
16/01:00am 27.0 CALM 0 - 1013.0 - 0.0 - - 10 - - - -
16/12:30am 27.0 CALM 0 - 1013.0 - 0.0 - Partly cloudy 10 - - - -
16/12:00am 26.7 CALM 0 - 1013.3 - 0.0 - - 10 - - - -
 
Date/Time
WST
Temp

°C
Wind Pressure Rain
since 9am
mm
Weather Cloud Vis
km
Sea
Height
m
Swell
Dir
 
Speed
knots
Gust
knots
hPa Trend Height
m
Period
s
Dir
15/11:30pm 27.0 CALM 0 - 1014.0 - 0.0 - - 10 - - - -
15/11:00pm 27.0 CALM 0 - 1014.0 - 0.0 - - 10 - - - -
15/10:30pm 27.0 CALM 0 - 1014.0 - 0.0 - - 10 - - - -
15/10:00pm 28.0 NE 3 - 1014.0 - 0.0 - - 10 - - - -
15/09:30pm 28.0 NE 4 - 1014.0 - 0.0 - - 10 - - - -

Other Formats:

Comma delimited format used in spreadsheet applications
http://www.bom.gov.au/fwo/IDW60701/IDW60701.95101.axf

JavaScript Object Notation format (JSON) in row-major order
http://www.bom.gov.au/fwo/IDW60701/IDW60701.95101.json